HKS77 EGPB-ENBR

Flight info

Callsign HKS77
Flight time 1h 52m
Altitude 5000
Route IZACK DCT MODNI
Aircraft A139/L-SDG/C

Departure

Time 2026-04-20 11:54
Airport Sumburgh Airport (EGPB)

Arrival

Time 2026-04-20 13:46
Airport Bergen Airport, Flesland (ENBR)
Time Latitude Longitude Altitude Speed Heading
2026-04-20 11:48 59.87669 -1.28910 23 ft 0 kts 324°
2026-04-20 11:50 59.87670 -1.28911 23 ft 1 kts 323°
2026-04-20 11:51 59.87676 -1.28949 22 ft 3 kts 250°
2026-04-20 11:51 59.87658 -1.28995 21 ft 4 kts 234°
2026-04-20 11:51 59.87677 -1.29065 20 ft 8 kts 324°
2026-04-20 11:51 59.87724 -1.29136 18 ft 8 kts 324°
2026-04-20 11:52 59.87770 -1.29203 17 ft 6 kts 324°
2026-04-20 11:52 59.87807 -1.29259 16 ft 8 kts 323°
2026-04-20 11:52 59.87862 -1.29340 14 ft 9 kts 324°
2026-04-20 11:52 59.87910 -1.29404 13 ft 8 kts 338°
2026-04-20 11:53 59.87978 -1.29389 13 ft 10 kts 39°
2026-04-20 11:53 59.88033 -1.29304 14 ft 9 kts 36°
2026-04-20 11:53 59.88088 -1.29238 14 ft 9 kts 34°
2026-04-20 11:53 59.88144 -1.29211 14 ft 8 kts 17°
2026-04-20 11:54 59.88159 -1.29160 15 ft 0 kts 86°
2026-04-20 11:54 59.88165 -1.29125 27 ft 14 kts 91°
2026-04-20 11:54 59.88200 -1.28591 291 ft 58 kts 92°
2026-04-20 11:54 59.88214 -1.27704 728 ft 67 kts 95°
2026-04-20 11:55 59.88189 -1.26798 1049 ft 68 kts 89°
2026-04-20 11:55 59.88183 -1.25782 1253 ft 79 kts 88°
2026-04-20 11:55 59.88188 -1.24587 1385 ft 96 kts 88°
2026-04-20 11:55 59.88208 -1.23120 1515 ft 114 kts 87°
2026-04-20 11:56 59.88243 -1.21476 1692 ft 119 kts 85°
2026-04-20 11:56 59.88294 -1.19822 1840 ft 121 kts 84°
2026-04-20 11:56 59.88361 -1.18142 1988 ft 120 kts 86°
2026-04-20 11:56 59.88443 -1.16507 2126 ft 118 kts 94°
2026-04-20 11:57 59.88503 -1.14843 2240 ft 119 kts 94°
2026-04-20 11:57 59.88566 -1.13192 2363 ft 119 kts 94°
2026-04-20 11:57 59.88634 -1.11546 2488 ft 120 kts 93°
2026-04-20 11:57 59.88707 -1.09928 2626 ft 118 kts 93°
2026-04-20 11:58 59.88783 -1.08291 2741 ft 119 kts 93°
2026-04-20 11:58 59.88862 -1.06656 2872 ft 118 kts 92°
2026-04-20 11:58 59.88942 -1.05013 3007 ft 118 kts 93°
2026-04-20 11:58 59.89024 -1.03381 3133 ft 118 kts 92°
2026-04-20 11:59 59.89102 -1.01731 3247 ft 119 kts 93°
2026-04-20 11:59 59.89178 -1.00091 3373 ft 120 kts 92°
2026-04-20 11:59 59.89256 -0.98431 3502 ft 121 kts 92°
2026-04-20 11:59 59.89334 -0.96752 3636 ft 121 kts 92°
2026-04-20 12:00 59.89413 -0.95085 3776 ft 121 kts 92°
2026-04-20 12:00 59.89492 -0.93428 3898 ft 121 kts 92°
2026-04-20 12:00 59.89570 -0.91773 4028 ft 120 kts 92°
2026-04-20 12:00 59.89649 -0.90101 4148 ft 121 kts 92°
2026-04-20 12:01 59.89728 -0.88438 4284 ft 120 kts 91°
2026-04-20 12:01 59.89806 -0.86772 4409 ft 121 kts 91°
2026-04-20 12:01 59.89884 -0.85107 4536 ft 121 kts 91°
2026-04-20 12:01 59.89961 -0.83447 4663 ft 121 kts 91°
2026-04-20 12:02 59.90039 -0.81787 4791 ft 121 kts 92°
2026-04-20 12:02 59.90118 -0.80097 4917 ft 122 kts 92°
2026-04-20 12:02 59.90196 -0.78398 5026 ft 123 kts 91°
2026-04-20 12:02 59.90271 -0.76723 5055 ft 122 kts 88°
2026-04-20 12:03 59.90354 -0.75019 5040 ft 122 kts 88°
2026-04-20 12:03 59.90435 -0.73334 5022 ft 123 kts 88°
2026-04-20 12:03 59.90515 -0.71630 5008 ft 123 kts 89°
2026-04-20 12:03 59.90595 -0.69926 5010 ft 123 kts 89°
2026-04-20 12:04 59.90672 -0.68250 5009 ft 123 kts 89°
2026-04-20 12:04 59.90751 -0.66530 5004 ft 123 kts 89°
2026-04-20 12:04 59.90828 -0.64836 5012 ft 123 kts 89°
2026-04-20 12:04 59.90905 -0.63130 5013 ft 123 kts 89°
2026-04-20 12:05 59.90982 -0.61447 5014 ft 123 kts 89°
2026-04-20 12:05 59.91059 -0.59743 5018 ft 123 kts 89°
2026-04-20 12:05 59.91135 -0.58045 5022 ft 122 kts 89°
2026-04-20 12:05 59.91211 -0.56352 5019 ft 123 kts 89°
2026-04-20 12:06 59.91286 -0.54656 5013 ft 123 kts 89°
2026-04-20 12:06 59.91363 -0.52940 5015 ft 124 kts 89°
2026-04-20 12:06 59.91438 -0.51241 5022 ft 123 kts 89°
2026-04-20 12:06 59.91514 -0.49527 5017 ft 123 kts 89°
2026-04-20 12:07 59.91588 -0.47847 5017 ft 123 kts 89°
2026-04-20 12:07 59.91663 -0.46131 5011 ft 123 kts 89°
2026-04-20 12:07 59.91737 -0.44423 5016 ft 123 kts 88°
2026-04-20 12:07 59.91812 -0.42728 5026 ft 123 kts 88°
2026-04-20 12:08 59.91886 -0.41023 5021 ft 123 kts 88°
2026-04-20 12:08 59.91960 -0.39323 5023 ft 122 kts 88°
2026-04-20 12:08 59.92033 -0.37650 5022 ft 122 kts 88°
2026-04-20 12:08 59.92107 -0.35940 5013 ft 122 kts 89°
2026-04-20 12:09 59.92180 -0.34237 5015 ft 123 kts 89°
2026-04-20 12:09 59.92252 -0.32541 5021 ft 122 kts 89°
2026-04-20 12:09 59.92324 -0.30836 5024 ft 123 kts 89°
2026-04-20 12:09 59.92397 -0.29145 5027 ft 122 kts 89°
2026-04-20 12:10 59.92470 -0.27453 5018 ft 123 kts 89°
2026-04-20 12:10 59.92543 -0.25731 5022 ft 123 kts 89°
2026-04-20 12:10 59.92615 -0.24036 5026 ft 123 kts 89°
2026-04-20 12:10 59.92688 -0.22315 5027 ft 123 kts 89°
2026-04-20 12:11 59.92759 -0.20624 5031 ft 123 kts 89°
2026-04-20 12:11 59.92829 -0.18938 5028 ft 123 kts 89°
2026-04-20 12:11 59.92900 -0.17230 5030 ft 123 kts 89°
2026-04-20 12:11 59.92971 -0.15531 5024 ft 123 kts 89°
2026-04-20 12:12 59.93042 -0.13830 5027 ft 122 kts 89°
2026-04-20 12:12 59.93112 -0.12135 5019 ft 123 kts 89°
2026-04-20 12:12 59.93183 -0.10429 5019 ft 123 kts 89°
2026-04-20 12:12 59.93253 -0.08715 5014 ft 123 kts 89°
2026-04-20 12:13 59.93321 -0.07018 5008 ft 123 kts 89°
2026-04-20 12:13 59.93391 -0.05317 5006 ft 124 kts 89°
2026-04-20 12:13 59.93461 -0.03580 5006 ft 124 kts 89°
2026-04-20 12:13 59.93531 -0.01860 5011 ft 124 kts 89°
2026-04-20 12:14 59.93601 -0.00143 5012 ft 124 kts 89°
2026-04-20 12:14 59.93670 0.01554 5012 ft 123 kts 89°
2026-04-20 12:14 59.93739 0.03266 5012 ft 123 kts 89°
2026-04-20 12:14 59.93807 0.04980 5003 ft 123 kts 89°
2026-04-20 12:15 59.93875 0.06673 5008 ft 123 kts 89°
2026-04-20 12:15 59.93943 0.08380 5008 ft 123 kts 89°
2026-04-20 12:15 59.94010 0.10070 5014 ft 123 kts 89°
2026-04-20 12:15 59.94077 0.11790 5024 ft 123 kts 89°
2026-04-20 12:16 59.94145 0.13513 5029 ft 123 kts 89°
2026-04-20 12:16 59.94212 0.15216 5033 ft 124 kts 89°
2026-04-20 12:16 59.94279 0.16919 5034 ft 124 kts 89°
2026-04-20 12:16 59.94347 0.18671 5034 ft 124 kts 89°
2026-04-20 12:17 59.94413 0.20394 5040 ft 124 kts 89°
2026-04-20 12:17 59.94479 0.22099 5044 ft 123 kts 89°
2026-04-20 12:17 59.94545 0.23804 5043 ft 123 kts 89°
2026-04-20 12:17 59.94611 0.25504 5032 ft 123 kts 89°
2026-04-20 12:18 59.94678 0.27229 5027 ft 123 kts 89°
2026-04-20 12:18 59.94743 0.28936 5033 ft 123 kts 89°
2026-04-20 12:18 59.94808 0.30634 5030 ft 123 kts 89°
2026-04-20 12:18 59.94872 0.32338 5029 ft 123 kts 89°
2026-04-20 12:19 59.94936 0.34044 5027 ft 124 kts 89°
2026-04-20 12:19 59.95001 0.35764 5032 ft 124 kts 89°
2026-04-20 12:19 59.95066 0.37491 5041 ft 124 kts 89°
2026-04-20 12:19 59.95129 0.39191 5079 ft 120 kts 89°
2026-04-20 12:20 59.95192 0.40847 5054 ft 119 kts 88°
2026-04-20 12:20 59.95253 0.42488 5029 ft 118 kts 89°
2026-04-20 12:20 59.95313 0.44124 5017 ft 118 kts 89°
2026-04-20 12:20 59.95375 0.45779 5017 ft 118 kts 89°
2026-04-20 12:21 59.95434 0.47415 5018 ft 118 kts 89°
2026-04-20 12:21 59.95494 0.49052 5015 ft 119 kts 89°
2026-04-20 12:21 59.95554 0.50694 5028 ft 118 kts 89°
2026-04-20 12:21 59.95614 0.52356 5028 ft 119 kts 89°
2026-04-20 12:22 59.95674 0.53998 5035 ft 118 kts 89°
2026-04-20 12:22 59.95734 0.55641 5029 ft 119 kts 89°
2026-04-20 12:22 59.95793 0.57287 5024 ft 119 kts 89°
2026-04-20 12:22 59.95853 0.58958 5023 ft 119 kts 89°
2026-04-20 12:23 59.95913 0.60604 5032 ft 119 kts 89°
2026-04-20 12:23 59.95972 0.62257 5031 ft 118 kts 89°
2026-04-20 12:23 59.96029 0.63884 5024 ft 118 kts 89°
2026-04-20 12:23 59.96088 0.65553 5026 ft 118 kts 90°
2026-04-20 12:24 59.96145 0.67187 5020 ft 118 kts 89°
2026-04-20 12:24 59.96202 0.68826 5020 ft 118 kts 89°
2026-04-20 12:24 59.96261 0.70470 5025 ft 118 kts 89°
2026-04-20 12:24 59.96318 0.72142 5030 ft 119 kts 89°
2026-04-20 12:25 59.96377 0.73800 5034 ft 119 kts 89°
2026-04-20 12:25 59.96434 0.75452 5041 ft 119 kts 89°
2026-04-20 12:25 59.96491 0.77087 5036 ft 119 kts 89°
2026-04-20 12:25 59.96549 0.78762 5047 ft 119 kts 89°
2026-04-20 12:26 59.96605 0.80418 5057 ft 119 kts 89°
2026-04-20 12:26 59.96661 0.82053 5066 ft 118 kts 89°
2026-04-20 12:26 59.96717 0.83695 5055 ft 118 kts 89°
2026-04-20 12:26 59.96773 0.85334 5055 ft 118 kts 89°
2026-04-20 12:27 59.96828 0.86983 5044 ft 118 kts 89°
2026-04-20 12:27 59.96883 0.88621 5046 ft 118 kts 90°
2026-04-20 12:27 59.96938 0.90266 5041 ft 118 kts 89°
2026-04-20 12:27 59.96993 0.91909 5038 ft 119 kts 89°
2026-04-20 12:28 59.97048 0.93580 5042 ft 120 kts 89°
2026-04-20 12:28 59.97102 0.95217 5061 ft 119 kts 89°
2026-04-20 12:28 59.97157 0.96890 5053 ft 119 kts 89°
2026-04-20 12:28 59.97212 0.98543 5051 ft 120 kts 89°
2026-04-20 12:29 59.97266 1.00179 5056 ft 119 kts 89°
2026-04-20 12:29 59.97320 1.01845 5048 ft 119 kts 89°
2026-04-20 12:29 59.97374 1.03492 5045 ft 119 kts 89°
2026-04-20 12:29 59.97427 1.05130 5042 ft 119 kts 89°
2026-04-20 12:30 59.97480 1.06769 5041 ft 118 kts 89°
2026-04-20 12:30 59.97532 1.08401 5027 ft 119 kts 89°
2026-04-20 12:30 59.97585 1.10062 5027 ft 119 kts 89°
2026-04-20 12:30 59.97638 1.11703 5025 ft 119 kts 89°
2026-04-20 12:31 59.97690 1.13363 5034 ft 119 kts 89°
2026-04-20 12:31 59.97742 1.14997 5046 ft 119 kts 89°
2026-04-20 12:31 59.97794 1.16651 5035 ft 119 kts 89°
2026-04-20 12:31 59.97845 1.18300 5036 ft 119 kts 89°
2026-04-20 12:32 59.97897 1.19937 5038 ft 119 kts 89°
2026-04-20 12:32 59.97948 1.21601 5038 ft 119 kts 89°
2026-04-20 12:32 59.97999 1.23249 5040 ft 119 kts 89°
2026-04-20 12:32 59.98049 1.24877 5038 ft 118 kts 89°
2026-04-20 12:33 59.98101 1.26531 5034 ft 119 kts 89°
2026-04-20 12:33 59.98152 1.28182 5040 ft 118 kts 89°
2026-04-20 12:33 59.98202 1.29826 5043 ft 118 kts 89°
2026-04-20 12:33 59.98252 1.31474 5043 ft 119 kts 89°
2026-04-20 12:34 59.98302 1.33125 5049 ft 119 kts 89°
2026-04-20 12:34 59.98351 1.34764 5052 ft 119 kts 89°
2026-04-20 12:34 59.98401 1.36426 5051 ft 119 kts 89°
2026-04-20 12:34 59.98451 1.38096 5054 ft 119 kts 89°
2026-04-20 12:35 59.98500 1.39732 5062 ft 119 kts 89°
2026-04-20 12:35 59.98548 1.41388 5059 ft 119 kts 89°
2026-04-20 12:35 59.98597 1.43035 5058 ft 119 kts 89°
2026-04-20 12:35 59.98645 1.44695 5052 ft 119 kts 89°
2026-04-20 12:36 59.98693 1.46341 5053 ft 119 kts 89°
2026-04-20 12:36 59.98741 1.47994 5050 ft 119 kts 89°
2026-04-20 12:36 59.98789 1.49657 5051 ft 120 kts 89°
2026-04-20 12:36 59.98837 1.51304 5056 ft 119 kts 89°
2026-04-20 12:37 59.98885 1.52968 5056 ft 119 kts 89°
2026-04-20 12:37 59.98933 1.54627 5059 ft 119 kts 89°
2026-04-20 12:37 59.98980 1.56285 5053 ft 120 kts 89°
2026-04-20 12:37 59.99027 1.57927 5056 ft 119 kts 89°
2026-04-20 12:38 59.99074 1.59581 5057 ft 119 kts 89°
2026-04-20 12:38 59.99121 1.61241 5057 ft 119 kts 89°
2026-04-20 12:38 59.99166 1.62869 5056 ft 119 kts 89°
2026-04-20 12:38 59.99212 1.64521 5049 ft 119 kts 89°
2026-04-20 12:39 59.99303 1.67820 5052 ft 119 kts 90°
2026-04-20 12:39 59.99348 1.69456 5051 ft 119 kts 90°
2026-04-20 12:39 59.99392 1.71113 5049 ft 119 kts 90°
2026-04-20 12:40 59.99437 1.72777 5045 ft 120 kts 89°
2026-04-20 12:40 59.99482 1.74418 5059 ft 119 kts 89°
2026-04-20 12:40 59.99526 1.76073 5054 ft 119 kts 89°
2026-04-20 12:40 59.99571 1.77706 5053 ft 119 kts 89°
2026-04-20 12:41 59.99615 1.79353 5047 ft 119 kts 89°
2026-04-20 12:41 59.99660 1.81009 5049 ft 119 kts 89°
2026-04-20 12:41 59.99703 1.82653 5044 ft 119 kts 89°
2026-04-20 12:41 59.99748 1.84305 5049 ft 119 kts 90°
2026-04-20 12:42 59.99790 1.85938 5047 ft 119 kts 90°
2026-04-20 12:42 59.99834 1.87598 5045 ft 119 kts 90°
2026-04-20 12:42 59.99876 1.89245 5042 ft 120 kts 90°
2026-04-20 12:42 59.99919 1.90908 5055 ft 119 kts 90°
2026-04-20 12:43 59.99961 1.92553 5054 ft 119 kts 90°
2026-04-20 12:43 60.00003 1.94200 5060 ft 119 kts 89°
2026-04-20 12:43 60.00045 1.95845 5057 ft 119 kts 89°
2026-04-20 12:43 60.00086 1.97497 5053 ft 119 kts 89°
2026-04-20 12:44 60.00128 1.99151 5051 ft 119 kts 89°
2026-04-20 12:44 60.00169 2.00786 5053 ft 118 kts 89°
2026-04-20 12:44 60.00209 2.02444 5048 ft 119 kts 89°
2026-04-20 12:44 60.00251 2.04079 5047 ft 119 kts 89°
2026-04-20 12:45 60.00292 2.05722 5044 ft 119 kts 89°
2026-04-20 12:45 60.00333 2.07377 5044 ft 120 kts 89°
2026-04-20 12:45 60.00374 2.09044 5049 ft 120 kts 89°
2026-04-20 12:45 60.00415 2.10722 5055 ft 120 kts 89°
2026-04-20 12:46 60.00454 2.12361 5059 ft 119 kts 89°
2026-04-20 12:46 60.00495 2.14033 5061 ft 119 kts 89°
2026-04-20 12:46 60.00533 2.15658 5059 ft 119 kts 89°
2026-04-20 12:46 60.00573 2.17316 5054 ft 118 kts 89°
2026-04-20 12:47 60.00612 2.18972 5045 ft 119 kts 89°
2026-04-20 12:47 60.00651 2.20607 5053 ft 119 kts 89°
2026-04-20 12:47 60.00689 2.22252 5059 ft 118 kts 89°
2026-04-20 12:47 60.00727 2.23908 5053 ft 119 kts 89°
2026-04-20 12:48 60.00766 2.25562 5045 ft 119 kts 89°
2026-04-20 12:48 60.00804 2.27221 5047 ft 120 kts 89°
2026-04-20 12:48 60.00841 2.28874 5044 ft 120 kts 88°
2026-04-20 12:48 60.00880 2.30552 5051 ft 120 kts 88°
2026-04-20 12:49 60.00919 2.32230 5062 ft 120 kts 88°
2026-04-20 12:49 60.00957 2.33882 5064 ft 119 kts 88°
2026-04-20 12:49 60.00993 2.35520 5060 ft 118 kts 88°
2026-04-20 12:49 60.01030 2.37176 5047 ft 119 kts 88°
2026-04-20 12:50 60.01066 2.38822 5048 ft 119 kts 88°
2026-04-20 12:50 60.01102 2.40460 5044 ft 119 kts 88°
2026-04-20 12:50 60.01139 2.42106 5050 ft 119 kts 88°
2026-04-20 12:50 60.01175 2.43771 5056 ft 119 kts 88°
2026-04-20 12:51 60.01211 2.45422 5051 ft 120 kts 88°
2026-04-20 12:51 60.01247 2.47096 5059 ft 120 kts 88°
2026-04-20 12:51 60.01282 2.48746 5059 ft 121 kts 88°
2026-04-20 12:51 60.01318 2.50436 5072 ft 120 kts 88°
2026-04-20 12:52 60.01353 2.52111 5078 ft 120 kts 88°
2026-04-20 12:52 60.01388 2.53766 5083 ft 119 kts 87°
2026-04-20 12:52 60.01423 2.55401 5072 ft 119 kts 87°
2026-04-20 12:52 60.01457 2.57067 5066 ft 119 kts 87°
2026-04-20 12:53 60.01492 2.58710 5061 ft 119 kts 87°
2026-04-20 12:53 60.01526 2.60359 5062 ft 119 kts 87°
2026-04-20 12:53 60.01560 2.62014 5054 ft 119 kts 87°
2026-04-20 12:53 60.01593 2.63666 5045 ft 120 kts 87°
2026-04-20 12:54 60.01627 2.65340 5044 ft 120 kts 88°
2026-04-20 12:54 60.01660 2.67013 5056 ft 121 kts 88°
2026-04-20 12:54 60.01693 2.68669 5064 ft 120 kts 88°
2026-04-20 12:54 60.01727 2.70362 5065 ft 120 kts 88°
2026-04-20 12:55 60.01760 2.72026 5058 ft 120 kts 88°
2026-04-20 12:55 60.01792 2.73687 5056 ft 120 kts 87°
2026-04-20 12:55 60.01825 2.75347 5059 ft 119 kts 87°
2026-04-20 12:55 60.01857 2.76989 5050 ft 119 kts 87°
2026-04-20 12:56 60.01889 2.78662 5046 ft 120 kts 88°
2026-04-20 12:56 60.01921 2.80307 5051 ft 120 kts 88°
2026-04-20 12:56 60.01953 2.81978 5054 ft 120 kts 88°
2026-04-20 12:56 60.01984 2.83653 5051 ft 120 kts 88°
2026-04-20 12:57 60.02014 2.85306 5054 ft 120 kts 88°
2026-04-20 12:57 60.02045 2.86975 5047 ft 121 kts 88°
2026-04-20 12:57 60.02076 2.88659 5052 ft 121 kts 87°
2026-04-20 12:57 60.02106 2.90325 5057 ft 120 kts 87°
2026-04-20 12:58 60.02137 2.91997 5054 ft 121 kts 87°
2026-04-20 12:58 60.02167 2.93665 5055 ft 120 kts 87°
2026-04-20 12:58 60.02197 2.95333 5056 ft 120 kts 87°
2026-04-20 12:58 60.02227 2.97015 5051 ft 120 kts 87°
2026-04-20 12:59 60.02256 2.98675 5051 ft 120 kts 87°
2026-04-20 12:59 60.02285 3.00349 5057 ft 120 kts 86°
2026-04-20 12:59 60.02314 3.01995 5053 ft 120 kts 86°
2026-04-20 12:59 60.02343 3.03670 5046 ft 120 kts 86°
2026-04-20 13:00 60.02372 3.05348 5046 ft 121 kts 86°
2026-04-20 13:00 60.02401 3.07030 5055 ft 121 kts 86°
2026-04-20 13:00 60.02430 3.08716 5065 ft 121 kts 86°
2026-04-20 13:00 60.02458 3.10418 5072 ft 121 kts 86°
2026-04-20 13:01 60.02485 3.12088 5075 ft 121 kts 86°
2026-04-20 13:01 60.02513 3.13782 5076 ft 121 kts 86°
2026-04-20 13:01 60.02541 3.15453 5075 ft 121 kts 86°
2026-04-20 13:01 60.02568 3.17149 5071 ft 121 kts 86°
2026-04-20 13:02 60.02596 3.18817 5067 ft 121 kts 86°
2026-04-20 13:02 60.02623 3.20489 5070 ft 121 kts 86°
2026-04-20 13:02 60.02649 3.22174 5066 ft 121 kts 86°
2026-04-20 13:02 60.02676 3.23841 5066 ft 121 kts 86°
2026-04-20 13:03 60.02702 3.25529 5057 ft 122 kts 86°
2026-04-20 13:03 60.02729 3.27224 5062 ft 122 kts 86°
2026-04-20 13:03 60.02755 3.28922 5068 ft 121 kts 86°
2026-04-20 13:03 60.02780 3.30600 5059 ft 122 kts 86°
2026-04-20 13:04 60.02805 3.32313 5061 ft 122 kts 86°
2026-04-20 13:04 60.02831 3.34004 5056 ft 122 kts 86°
2026-04-20 13:04 60.02855 3.35684 5053 ft 122 kts 85°
2026-04-20 13:04 60.02880 3.37375 5049 ft 122 kts 85°
2026-04-20 13:05 60.02906 3.39095 5053 ft 122 kts 85°
2026-04-20 13:05 60.02930 3.40786 5055 ft 122 kts 85°
2026-04-20 13:05 60.02955 3.42490 5049 ft 123 kts 85°
2026-04-20 13:05 60.02979 3.44181 5058 ft 122 kts 85°
2026-04-20 13:06 60.03003 3.45902 5056 ft 122 kts 85°
2026-04-20 13:06 60.03027 3.47595 5054 ft 123 kts 85°
2026-04-20 13:06 60.03051 3.49291 5051 ft 123 kts 85°
2026-04-20 13:06 60.03074 3.51017 5056 ft 122 kts 85°
2026-04-20 13:07 60.03097 3.52708 5051 ft 123 kts 85°
2026-04-20 13:07 60.03120 3.54401 5051 ft 123 kts 85°
2026-04-20 13:07 60.03142 3.56124 5056 ft 123 kts 85°
2026-04-20 13:07 60.03165 3.57832 5055 ft 123 kts 85°
2026-04-20 13:08 60.03187 3.59525 5048 ft 123 kts 85°
2026-04-20 13:08 60.03209 3.61235 5049 ft 123 kts 85°
2026-04-20 13:08 60.03231 3.62950 5048 ft 124 kts 85°
2026-04-20 13:08 60.03252 3.64677 5055 ft 124 kts 85°
2026-04-20 13:09 60.03274 3.66390 5059 ft 124 kts 85°
2026-04-20 13:09 60.03296 3.68102 5060 ft 124 kts 85°
2026-04-20 13:09 60.03318 3.69832 5062 ft 124 kts 85°
2026-04-20 13:09 60.03339 3.71557 5055 ft 124 kts 85°
2026-04-20 13:10 60.03359 3.73277 5045 ft 124 kts 85°
2026-04-20 13:10 60.03379 3.75010 5031 ft 125 kts 85°
2026-04-20 13:10 60.03399 3.76741 5035 ft 124 kts 85°
2026-04-20 13:10 60.03420 3.78490 5042 ft 124 kts 85°
2026-04-20 13:11 60.03442 3.80205 5041 ft 124 kts 85°
2026-04-20 13:11 60.03461 3.81930 5046 ft 124 kts 85°
2026-04-20 13:11 60.03480 3.83657 5042 ft 124 kts 85°
2026-04-20 13:11 60.03500 3.85370 5036 ft 124 kts 85°
2026-04-20 13:12 60.03518 3.87117 5040 ft 124 kts 85°
2026-04-20 13:12 60.03537 3.88829 5034 ft 124 kts 85°
2026-04-20 13:12 60.03555 3.90582 5019 ft 126 kts 85°
2026-04-20 13:12 60.03574 3.92343 5028 ft 126 kts 85°
2026-04-20 13:13 60.03592 3.94077 5045 ft 125 kts 85°
2026-04-20 13:13 60.03610 3.95823 5041 ft 126 kts 85°
2026-04-20 13:13 60.03628 3.97572 5040 ft 125 kts 84°
2026-04-20 13:13 60.03796 3.99274 5039 ft 124 kts 74°
2026-04-20 13:14 60.04000 4.00954 5040 ft 124 kts 74°
2026-04-20 13:14 60.04204 4.02638 5033 ft 125 kts 74°
2026-04-20 13:14 60.04410 4.04335 5036 ft 124 kts 74°
2026-04-20 13:14 60.04615 4.06022 5035 ft 124 kts 74°
2026-04-20 13:15 60.04820 4.07707 5033 ft 125 kts 73°
2026-04-20 13:15 60.05025 4.09388 5030 ft 125 kts 73°
2026-04-20 13:15 60.05233 4.11097 5031 ft 125 kts 73°
2026-04-20 13:15 60.05439 4.12788 5038 ft 125 kts 73°
2026-04-20 13:16 60.05645 4.14468 5040 ft 125 kts 73°
2026-04-20 13:16 60.05850 4.16150 5040 ft 125 kts 73°
2026-04-20 13:16 60.06057 4.17857 5037 ft 125 kts 73°
2026-04-20 13:16 60.06263 4.19549 5036 ft 125 kts 73°
2026-04-20 13:17 60.06467 4.21233 5029 ft 125 kts 73°
2026-04-20 13:17 60.06675 4.22943 5034 ft 125 kts 73°
2026-04-20 13:17 60.06879 4.24635 5038 ft 125 kts 73°
2026-04-20 13:17 60.07085 4.26330 5031 ft 125 kts 73°
2026-04-20 13:18 60.07288 4.28015 5031 ft 126 kts 73°
2026-04-20 13:18 60.07494 4.29725 5034 ft 126 kts 73°
2026-04-20 13:18 60.07699 4.31421 5037 ft 126 kts 73°
2026-04-20 13:18 60.07906 4.33145 5033 ft 126 kts 73°
2026-04-20 13:19 60.08108 4.34835 5036 ft 126 kts 73°
2026-04-20 13:19 60.08312 4.36544 5034 ft 126 kts 73°
2026-04-20 13:19 60.08514 4.38233 5033 ft 125 kts 73°
2026-04-20 13:19 60.08720 4.39954 5027 ft 126 kts 73°
2026-04-20 13:20 60.08924 4.41665 4957 ft 126 kts 72°
2026-04-20 13:20 60.09130 4.43371 4851 ft 126 kts 72°
2026-04-20 13:20 60.09333 4.45055 4741 ft 126 kts 72°
2026-04-20 13:20 60.09537 4.46752 4626 ft 125 kts 72°
2026-04-20 13:21 60.09740 4.48446 4514 ft 125 kts 72°
2026-04-20 13:21 60.09944 4.50161 4399 ft 125 kts 72°
2026-04-20 13:21 60.10144 4.51846 4291 ft 125 kts 71°
2026-04-20 13:21 60.10346 4.53543 4168 ft 126 kts 71°
2026-04-20 13:22 60.10548 4.55247 4057 ft 126 kts 71°
2026-04-20 13:22 60.10749 4.56960 4000 ft 126 kts 72°
2026-04-20 13:22 60.10949 4.58684 3991 ft 126 kts 72°
2026-04-20 13:22 60.11146 4.60378 4005 ft 125 kts 72°
2026-04-20 13:23 60.11344 4.62071 4016 ft 125 kts 73°
2026-04-20 13:23 60.11543 4.63767 4016 ft 125 kts 73°
2026-04-20 13:23 60.11745 4.65491 4026 ft 125 kts 74°
2026-04-20 13:23 60.11799 4.67229 4023 ft 128 kts 94°
2026-04-20 13:24 60.11660 4.68994 4037 ft 128 kts 95°
2026-04-20 13:24 60.11513 4.70743 4039 ft 128 kts 95°
2026-04-20 13:24 60.11359 4.72515 4038 ft 128 kts 95°
2026-04-20 13:24 60.11204 4.74286 4028 ft 129 kts 95°
2026-04-20 13:25 60.11046 4.76068 4020 ft 129 kts 95°
2026-04-20 13:25 60.10887 4.77844 4015 ft 130 kts 96°
2026-04-20 13:25 60.10726 4.79637 4024 ft 130 kts 96°
2026-04-20 13:25 60.10539 4.81414 4026 ft 133 kts 106°
2026-04-20 13:26 60.09886 4.82709 4022 ft 140 kts 151°
2026-04-20 13:26 60.08913 4.82983 4054 ft 140 kts 174°
2026-04-20 13:26 60.07932 4.83016 4036 ft 141 kts 175°
2026-04-20 13:26 60.06953 4.83028 4041 ft 142 kts 176°
2026-04-20 13:27 60.05959 4.83030 4046 ft 141 kts 176°
2026-04-20 13:27 60.04976 4.83030 4044 ft 141 kts 175°
2026-04-20 13:27 60.04034 4.83497 4040 ft 139 kts 157°
2026-04-20 13:27 60.03125 4.84135 4035 ft 139 kts 156°
2026-04-20 13:28 60.02217 4.84780 4027 ft 139 kts 156°
2026-04-20 13:28 60.01295 4.85436 4026 ft 140 kts 156°
2026-04-20 13:28 60.00385 4.86086 4029 ft 140 kts 156°
2026-04-20 13:28 59.99458 4.86758 4040 ft 139 kts 154°
2026-04-20 13:29 59.98678 4.87848 4046 ft 136 kts 136°
2026-04-20 13:29 59.97953 4.89028 4037 ft 135 kts 135°
2026-04-20 13:29 59.97226 4.90222 4013 ft 135 kts 135°
2026-04-20 13:29 59.96491 4.91434 3990 ft 135 kts 135°
2026-04-20 13:30 59.95768 4.92624 4009 ft 135 kts 135°
2026-04-20 13:30 59.95047 4.93816 4013 ft 135 kts 135°
2026-04-20 13:30 59.94491 4.95296 4010 ft 132 kts 117°
2026-04-20 13:30 59.94020 4.96856 4016 ft 132 kts 116°
2026-04-20 13:31 59.93549 4.98441 4011 ft 132 kts 116°
2026-04-20 13:31 59.93080 5.00023 4001 ft 132 kts 115°
2026-04-20 13:31 59.92612 5.01605 4008 ft 132 kts 115°
2026-04-20 13:31 59.92146 5.03188 4018 ft 132 kts 115°
2026-04-20 13:32 59.91823 5.04882 4020 ft 129 kts 97°
2026-04-20 13:32 59.91668 5.06640 4013 ft 129 kts 95°
2026-04-20 13:32 59.91523 5.08392 4021 ft 129 kts 95°
2026-04-20 13:32 59.91379 5.10156 4027 ft 129 kts 95°
2026-04-20 13:33 59.91238 5.11921 3993 ft 129 kts 95°
2026-04-20 13:33 59.91095 5.13698 3997 ft 128 kts 95°
2026-04-20 13:33 59.91112 5.15435 3977 ft 127 kts 70°
2026-04-20 13:33 59.91714 5.16685 3998 ft 127 kts 28°
2026-04-20 13:34 59.92587 5.16938 4050 ft 127 kts
2026-04-20 13:34 59.93481 5.16939 4045 ft 128 kts
2026-04-20 13:34 59.94373 5.16898 4029 ft 129 kts
2026-04-20 13:34 59.95270 5.16841 4023 ft 129 kts
2026-04-20 13:35 59.96173 5.16774 4020 ft 129 kts 360°
2026-04-20 13:35 59.97068 5.16702 4028 ft 129 kts 359°
2026-04-20 13:35 59.97976 5.16628 4013 ft 130 kts 359°
2026-04-20 13:35 59.98882 5.16550 4021 ft 129 kts 359°
2026-04-20 13:36 59.99780 5.16474 4037 ft 129 kts 359°
2026-04-20 13:36 60.00670 5.16397 4026 ft 129 kts 359°
2026-04-20 13:36 60.01581 5.16319 4012 ft 130 kts 360°
2026-04-20 13:36 60.02490 5.16242 4011 ft 130 kts 360°
2026-04-20 13:37 60.03392 5.16164 4024 ft 130 kts 360°
2026-04-20 13:37 60.04295 5.16086 4028 ft 129 kts 360°
2026-04-20 13:37 60.05203 5.16009 4010 ft 130 kts 359°
2026-04-20 13:37 60.06110 5.15933 3940 ft 130 kts 358°
2026-04-20 13:38 60.07001 5.15995 3813 ft 130 kts 17°
2026-04-20 13:38 60.07682 5.17129 3724 ft 127 kts 52°
2026-04-20 13:38 60.08160 5.18611 3620 ft 126 kts 54°
2026-04-20 13:38 60.08613 5.20105 3500 ft 127 kts 56°
2026-04-20 13:39 60.09059 5.21629 3389 ft 127 kts 57°
2026-04-20 13:39 60.09498 5.23155 3278 ft 127 kts 57°
2026-04-20 13:39 60.09935 5.24693 3177 ft 126 kts 57°
2026-04-20 13:39 60.10373 5.26244 3052 ft 127 kts 57°
2026-04-20 13:40 60.11012 5.27397 2933 ft 127 kts 20°
2026-04-20 13:40 60.11893 5.27462 2831 ft 128 kts 355°
2026-04-20 13:40 60.12790 5.27252 2717 ft 128 kts 353°
2026-04-20 13:40 60.13657 5.26998 2564 ft 126 kts 352°
2026-04-20 13:41 60.14520 5.26728 2475 ft 127 kts 353°
2026-04-20 13:41 60.15400 5.26456 2472 ft 127 kts 354°
2026-04-20 13:41 60.16256 5.26174 2542 ft 121 kts 352°
2026-04-20 13:41 60.17066 5.25903 2418 ft 117 kts 350°
2026-04-20 13:42 60.17868 5.25627 2255 ft 117 kts 351°
2026-04-20 13:42 60.19425 5.25114 1965 ft 108 kts 350°
2026-04-20 13:42 60.20159 5.24868 1805 ft 105 kts 351°
2026-04-20 13:43 60.20869 5.24638 1669 ft 101 kts 350°
2026-04-20 13:43 60.21547 5.24416 1537 ft 96 kts 349°
2026-04-20 13:43 60.22212 5.24192 1393 ft 96 kts 351°
2026-04-20 13:43 60.22848 5.23982 1273 ft 91 kts 349°
2026-04-20 13:44 60.23457 5.23774 1148 ft 89 kts 351°
2026-04-20 13:44 60.24059 5.23579 1043 ft 84 kts 347°
2026-04-20 13:44 60.24630 5.23384 916 ft 81 kts 347°
2026-04-20 13:44 60.25191 5.23191 801 ft 83 kts 351°
2026-04-20 13:45 60.25760 5.23013 703 ft 79 kts 346°
2026-04-20 13:45 60.26297 5.22818 584 ft 78 kts 349°
2026-04-20 13:45 60.26828 5.22651 476 ft 77 kts 349°
2026-04-20 13:45 60.27353 5.22474 381 ft 77 kts 347°
2026-04-20 13:46 60.27881 5.22302 279 ft 76 kts 348°
2026-04-20 13:46 60.28395 5.22132 177 ft 71 kts 348°
2026-04-20 13:46 60.28687 5.21971 164 ft 58 kts 346°
2026-04-20 13:46 60.29063 5.21904 181 ft 32 kts 351°
2026-04-20 13:47 60.29296 5.21825 172 ft 28 kts 350°
2026-04-20 13:47 60.29371 5.21805 147 ft 2 kts 82°
2026-04-20 13:47 60.29370 5.21808 144 ft 0 kts 79°
2026-04-20 13:47 60.29375 5.21852 146 ft 6 kts 79°
2026-04-20 13:48 60.29383 5.21950 147 ft 7 kts 82°
2026-04-20 13:48 60.29393 5.22054 149 ft 6 kts 71°
2026-04-20 13:48 60.29416 5.22099 150 ft 4 kts 21°
2026-04-20 13:48 60.29446 5.22099 149 ft 5 kts 352°
2026-04-20 13:49 60.29482 5.22088 148 ft 4 kts 357°
2026-04-20 13:49 60.29503 5.22114 148 ft 4 kts 70°
2026-04-20 13:49 60.29504 5.22174 150 ft 4 kts 83°
2026-04-20 13:49 60.29517 5.22225 150 ft 3 kts 27°
2026-04-20 13:50 60.29540 5.22266 150 ft 2 kts 64°
2026-04-20 13:50 60.29540 5.22268 150 ft 0 kts 65°
2026-04-20 13:51 60.29542 5.22279 151 ft 5 kts 64°
2026-04-20 13:51 60.29563 5.22364 153 ft 4 kts 76°
2026-04-20 13:51 60.29570 5.22399 154 ft 1 kts 52°
2026-04-20 13:51 60.29580 5.22412 154 ft 2 kts 18°
2026-04-20 13:52 60.29612 5.22408 154 ft 6 kts 353°
2026-04-20 13:52 60.29647 5.22377 153 ft 2 kts 299°
2026-04-20 13:52 60.29648 5.22344 153 ft 3 kts 263°
2026-04-20 13:52 60.29652 5.22327 152 ft 0 kts 337°